Weather History for KSUN - January, 2013

Change the Weather History Date:

Friday, January 4, 2013

  Actual Average (WUND) Record (WUND)
Temperature  
Mean Temperature 12 °F -  
Max Temperature 21 °F - - (-1)
Min Temperature 3 °F - - (-1)
Degree Days  
Heating Degree Days 53    
Moisture  
Dew Point 5 °F    
Average Humidity 77    
Maximum Humidity 92    
Minimum Humidity 58    
Precipitation  
Precipitation 0.00 in - - ()
Sea Level Pressure  
Sea Level Pressure 30.31 in    
Wind  
Wind Speed 8 mph (NW)    
Max Wind Speed 10 mph    
Max Gust Speed -    
Visibility 10 miles    
Events      
Averages and records for this station are not official NWS values.
T = Trace of Precipitation, MM = Missing Value Source: NWS Daily Summary

Daily Weather History Graph

Daily Weather History Graph

Search for Another Location

Airport or City:

Trip Planner

Search our weather history database for the weather conditions in past years. The results will help you decide how hot, cold, wet, or windy it might be!

Date:

Astronomy

Jan. 04, 2013 Rise Set
Actual Time 8:10 AM MST 5:14 PM MST
Civil Twilight 7:37 AM MST 5:47 PM MST
Nautical Twilight 7:01 AM MST 6:23 PM MST
Astronomical Twilight 6:27 AM MST 6:57 PM MST
Moon 12:06 AM MST (1/4) 11:41 AM MST (1/4)
Length of Visible Light 10h 09m
Length of Day
9h 04m
Waning Gibbous, 54% of the Moon is Illuminated
Jan 4
Waning Gibbous
Jan 4
Last Quarter
Jan 11
New
Jan 18
First Quarter
Jan 26
Full

Hourly Weather History & Observations

Time (MST) Temp. Windchill Dew Point Humidity Pressure Visibility Wind Dir Wind Speed Gust Speed Precip Events Conditions
12:15 AM 12.2 °F -0.2 °F 6.8 °F 79% 30.33 in 10.0 mi NW 9.2 mph - N/A   Clear
12:35 AM 12.2 °F -0.2 °F 6.8 °F 79% 30.32 in 10.0 mi NW 9.2 mph - N/A   Clear
12:55 AM 12.2 °F 0.7 °F 6.8 °F 79% 30.32 in 10.0 mi NW 8.1 mph - N/A   Clear
1:15 AM 10.4 °F -3.3 °F 6.8 °F 85% 30.32 in 10.0 mi NW 10.4 mph - N/A   Clear
1:35 AM 12.2 °F -1.0 °F 6.8 °F 79% 30.32 in 10.0 mi NW 10.4 mph - N/A   Clear
1:55 AM 12.2 °F -0.2 °F 5.0 °F 73% 30.30 in 10.0 mi NW 9.2 mph - N/A   Clear
2:15 AM 12.2 °F -0.2 °F 5.0 °F 73% 30.31 in 10.0 mi WNW 9.2 mph - N/A   Clear
4:55 AM 10.4 °F -1.5 °F 5.0 °F 79% 30.32 in 10.0 mi NW 8.1 mph - N/A   Clear
5:15 AM 6.8 °F -3.5 °F 1.4 °F 79% 30.31 in 10.0 mi NW 5.8 mph - N/A   Clear
5:35 AM 3.2 °F -9.1 °F 1.4 °F 92% 30.31 in 10.0 mi NW 6.9 mph - N/A   Clear
5:55 AM 6.8 °F -5.9 °F 3.2 °F 85% 30.31 in 10.0 mi NW 8.1 mph - N/A   Clear
6:47 AM 3.2 °F -11.3 °F -0.4 °F 85% 30.32 in 10.0 mi NW 9.2 mph - N/A   Clear
7:47 AM 3.2 °F -7.8 °F -0.4 °F 85% 30.32 in 10.0 mi NW 5.8 mph - N/A   Clear
8:47 AM 3.2 °F -10.3 °F -0.4 °F 85% 30.32 in 10.0 mi WNW 8.1 mph - N/A   Clear
9:47 AM 6.8 °F -4.8 °F 1.4 °F 79% 30.33 in 10.0 mi WNW 6.9 mph - N/A   Clear
10:47 AM 14.0 °F 3.9 °F 5.0 °F 67% 30.34 in 10.0 mi WNW 6.9 mph - N/A   Clear
11:47 AM 17.6 °F 10.7 °F 6.8 °F 63% 30.33 in 10.0 mi NW 4.6 mph - N/A   Clear
12:47 PM 21.2 °F 14.9 °F 8.6 °F 58% 30.30 in 10.0 mi SE 4.6 mph - N/A   Clear
1:47 PM 21.2 °F 12.6 °F 8.6 °F 58% 30.28 in 10.0 mi ESE 6.9 mph - N/A   Clear
2:47 PM 21.2 °F 11.7 °F 8.6 °F 58% 30.26 in 10.0 mi ESE 8.1 mph - N/A   Clear
3:47 PM 19.4 °F 8.6 °F 8.6 °F 63% 30.28 in 10.0 mi ESE 9.2 mph - N/A   Clear
4:47 PM 15.8 °F 8.6 °F 6.8 °F 68% 30.28 in 10.0 mi ESE 4.6 mph - N/A   Clear
5:47 PM 15.8 °F - 6.8 °F 68% 30.29 in 10.0 mi Calm Calm - N/A   Clear
6:47 PM 12.2 °F - 6.8 °F 79% 30.30 in 10.0 mi Calm Calm - N/A   Clear
7:50 PM 10.4 °F -1.5 °F 6.8 °F 85% 30.30 in 10.0 mi WNW 8.1 mph - N/A   Clear
8:47 PM 10.4 °F -2.4 °F 6.8 °F 85% 30.29 in 10.0 mi WNW 9.2 mph - N/A   Clear
9:47 PM 10.4 °F -3.3 °F 6.8 °F 85% 30.29 in 10.0 mi West 10.4 mph - N/A   Clear
10:15 PM 10.4 °F -1.5 °F 5.0 °F 79% 30.29 in 10.0 mi NW 8.1 mph - N/A   Clear
10:35 PM 8.6 °F -1.3 °F 3.2 °F 79% 30.30 in 10.0 mi NNW 5.8 mph - N/A   Clear
10:47 PM 8.6 °F 0.1 °F 3.2 °F 79% 30.30 in 10.0 mi NW 4.6 mph - N/A   Clear
10:55 PM 10.4 °F -2.4 °F 6.8 °F 85% 30.30 in 10.0 mi NNW 9.2 mph - N/A   Clear
11:15 PM 10.4 °F -1.5 °F 5.0 °F 79% 30.30 in 10.0 mi NW 8.1 mph - N/A   Clear
11:35 PM 8.6 °F -3.7 °F 5.0 °F 85% 30.30 in 10.0 mi NW 8.1 mph - N/A   Clear
11:55 PM 10.4 °F -1.5 °F 5.0 °F 79% 30.30 in 10.0 mi NW 8.1 mph - N/A   Clear